INSAT-3DR

Last updated on Jan. 25, 2020, 4:43 a.m. UTC

1 41752U 16054A   20024.56602010 -.00000086  00000-0  00000-0 0  9998
2 41752   0.1185  98.4663 0012894 177.3893 125.2452  1.00271303 12386
UTC
Height (km)
Latitude
Longitude
Inclination
Orbital Period
UTC large
Height (km)
Speed (km/s)
/
Latitude / Longitude
Inclination (degrees)
Orbital Period (minutes)
Azimuth
Elevation
Range (km)
Doppler Factor
iOS Compass Heading
iOS Angle

Next 30 passes for location: Hong Kong

Rise time Rise Azimuth (degrees) Set time Set Azimuth (degrees) Duration Max altitude (degrees)

No matching passes for this satellites